Hourly Weather Bashtanka

Today, 4 August, Tuesday

Time Temperature Precipitation Wind Pressure Humidity
00:00 +21°C° 0 mm 1 mps 754 mmHg 52%
01:00 +20°C° 0 mm 1 mps 754 mmHg 53%
02:00 +20°C° 0 mm 1 mps 754 mmHg 54%
03:00 +19°C° 0 mm 2 mps 754 mmHg 56%
04:00 +18°C° 0 mm 2 mps 754 mmHg 58%
05:00 +18°C° 0 mm 2 mps 754 mmHg 60%
06:00 +20°C° 0 mm 3 mps 754 mmHg 55%
07:00 +24°C° 0 mm 3 mps 754 mmHg 50%
08:00 +26°C° 0 mm 4 mps 755 mmHg 45%
09:00 +27°C° 0 mm 4 mps 755 mmHg 41%
10:00 +29°C° 0 mm 4 mps 754 mmHg 37%
11:00 +30°C° 0 mm 4 mps 754 mmHg 33%
12:00 +32°C° 0 mm 4 mps 754 mmHg 31%
13:00 +32°C° 0 mm 4 mps 754 mmHg 29%
14:00 +33°C° 0 mm 4 mps 754 mmHg 27%
15:00 +33°C° 0 mm 4 mps 753 mmHg 27%
16:00 +33°C° 0 mm 4 mps 753 mmHg 28%
17:00 +32°C° 0 mm 4 mps 753 mmHg 28%
18:00 +29°C° 0 mm 3 mps 753 mmHg 33%
19:00 +27°C° 0 mm 3 mps 753 mmHg 39%
20:00 +25°C° 0 mm 2 mps 753 mmHg 44%
21:00 +24°C° 0 mm 2 mps 753 mmHg 49%
22:00 +24°C° 0 mm 2 mps 753 mmHg 53%
23:00 +23°C° 0 mm 1 mps 753 mmHg 57%

Tomorrow, 5 August, Wednesday

Time Temperature Precipitation Wind Pressure Humidity
00:00 +22°C° 0 mm 1 mps 753 mmHg 58%
01:00 +22°C° 0 mm 1 mps 754 mmHg 59%
02:00 +22°C° 0 mm 1 mps 754 mmHg 60%
03:00 +21°C° 0 mm 1 mps 754 mmHg 60%
04:00 +20°C° 0 mm 2 mps 754 mmHg 61%
05:00 +20°C° 0 mm 2 mps 754 mmHg 62%
06:00 +22°C° 0 mm 3 mps 754 mmHg 57%
07:00 +25°C° 0 mm 3 mps 754 mmHg 51%
08:00 +27°C° 0 mm 3 mps 754 mmHg 45%
09:00 +29°C° 0 mm 4 mps 754 mmHg 40%
10:00 +30°C° 0 mm 4 mps 754 mmHg 35%
11:00 +33°C° 0 mm 5 mps 755 mmHg 29%
12:00 +33°C° 0 mm 5 mps 754 mmHg 28%
13:00 +33°C° 0 mm 5 mps 754 mmHg 27%
14:00 +34°C° 0 mm 5 mps 754 mmHg 26%
15:00 +33°C° 0 mm 5 mps 754 mmHg 26%
16:00 +33°C° 0 mm 5 mps 754 mmHg 27%
17:00 +33°C° 0 mm 5 mps 754 mmHg 27%
18:00 +30°C° 0 mm 4 mps 754 mmHg 31%
19:00 +28°C° 0 mm 4 mps 754 mmHg 36%
20:00 +26°C° 0 mm 3 mps 754 mmHg 40%
21:00 +25°C° 0 mm 3 mps 754 mmHg 43%
22:00 +24°C° 0 mm 3 mps 755 mmHg 46%
23:00 +22°C° 0 mm 3 mps 755 mmHg 49%

Day after tomorrow, 6 August, Thursday

Time Temperature Precipitation Wind Pressure Humidity
00:00 +22°C° 0 mm 4 mps 755 mmHg 52%
01:00 +21°C° 0 mm 4 mps 755 mmHg 55%
02:00 +21°C° 0 mm 4 mps 755 mmHg 58%
03:00 +20°C° 0 mm 4 mps 755 mmHg 61%
04:00 +20°C° 0 mm 4 mps 755 mmHg 64%
05:00 +19°C° 0 mm 4 mps 756 mmHg 67%
06:00 +21°C° 0 mm 4 mps 756 mmHg 61%
07:00 +23°C° 0 mm 5 mps 756 mmHg 55%
08:00 +26°C° 0 mm 5 mps 756 mmHg 50%
09:00 +28°C° 0 mm 5 mps 756 mmHg 45%
10:00 +30°C° 0 mm 6 mps 756 mmHg 41%
11:00 +33°C° 0 mm 6 mps 756 mmHg 37%
12:00 +33°C° 0 mm 6 mps 756 mmHg 35%
13:00 +34°C° 0 mm 6 mps 756 mmHg 33%
14:00 +35°C° 0 mm 5 mps 755 mmHg 31%
15:00 +35°C° 0 mm 5 mps 755 mmHg 32%
16:00 +35°C° 0 mm 5 mps 755 mmHg 32%
17:00 +34°C° 0 mm 5 mps 755 mmHg 33%
18:00 +33°C° 0 mm 5 mps 755 mmHg 37%
19:00 +30°C° 0 mm 4 mps 755 mmHg 42%
20:00 +28°C° 0 mm 3 mps 755 mmHg 46%
21:00 +27°C° 0 mm 4 mps 755 mmHg 49%
22:00 +27°C° 0 mm 4 mps 756 mmHg 52%
23:00 +26°C° 0 mm 4 mps 756 mmHg 55%

7 August, Friday

Time Temperature Precipitation Wind Pressure Humidity
00:00 +25°C° 0 mm 4 mps 756 mmHg 58%
01:00 +25°C° 0 mm 4 mps 756 mmHg 61%
02:00 +23°C° 0 mm 4 mps 756 mmHg 64%
03:00 +23°C° 0 mm 4 mps 756 mmHg 65%
04:00 +22°C° 0 mm 4 mps 756 mmHg 65%
05:00 +22°C° 0 mm 5 mps 756 mmHg 66%
06:00 +25°C° 0 mm 5 mps 756 mmHg 60%
07:00 +26°C° 0 mm 5 mps 756 mmHg 54%
08:00 +28°C° 0 mm 6 mps 756 mmHg 49%
09:00 +29°C° 0 mm 6 mps 756 mmHg 43%
10:00 +32°C° 0 mm 6 mps 756 mmHg 38%
11:00 +34°C° 0 mm 6 mps 756 mmHg 33%
12:00 +34°C° 0 mm 6 mps 756 mmHg 32%
13:00 +35°C° 0 mm 6 mps 755 mmHg 31%
14:00 +36°C° 0 mm 6 mps 755 mmHg 30%
15:00 +35°C° 0 mm 6 mps 755 mmHg 29%
16:00 +35°C° 0 mm 6 mps 755 mmHg 28%
17:00 +35°C° 0 mm 6 mps 754 mmHg 28%
18:00 +33°C° 0 mm 5 mps 754 mmHg 33%
19:00 +30°C° 0 mm 5 mps 754 mmHg 38%
20:00 +28°C° 0 mm 4 mps 754 mmHg 43%
21:00 +27°C° 0 mm 4 mps 754 mmHg 48%
22:00 +26°C° 0 mm 4 mps 754 mmHg 53%
23:00 +26°C° 0 mm 4 mps 754 mmHg 58%

8 August, Saturday

Time Temperature Precipitation Wind Pressure Humidity
00:00 +25°C° 0 mm 4 mps 754 mmHg 63%
01:00 +25°C° 0 mm 4 mps 754 mmHg 68%
02:00 +23°C° 0 mm 5 mps 754 mmHg 72%
03:00 +23°C° 0 mm 5 mps 754 mmHg 76%
04:00 +22°C° 0 mm 5 mps 754 mmHg 80%
05:00 +21°C° 0 mm 5 mps 754 mmHg 84%
06:00 +23°C° 0 mm 5 mps 754 mmHg 77%
07:00 +25°C° 0 mm 5 mps 754 mmHg 70%
08:00 +27°C° 0 mm 5 mps 754 mmHg 63%
09:00 +29°C° 0 mm 5 mps 754 mmHg 56%
10:00 +30°C° 0 mm 5 mps 753 mmHg 49%
11:00 +33°C° 0 mm 5 mps 753 mmHg 43%
12:00 +33°C° 0 mm 5 mps 753 mmHg 43%
13:00 +33°C° 0 mm 5 mps 752 mmHg 43%
14:00 +33°C° 0 mm 5 mps 752 mmHg 43%
15:00 +33°C° 0 mm 5 mps 752 mmHg 42%
16:00 +33°C° 0 mm 5 mps 751 mmHg 42%
17:00 +33°C° 0 mm 6 mps 751 mmHg 41%
18:00 +30°C° 0 mm 5 mps 751 mmHg 45%
19:00 +29°C° 0 mm 5 mps 751 mmHg 50%
20:00 +27°C° 0 mm 4 mps 751 mmHg 54%
21:00 +27°C° 0 mm 4 mps 751 mmHg 56%
22:00 +26°C° 0 mm 5 mps 751 mmHg 58%
23:00 +25°C° 0 mm 5 mps 751 mmHg 60%

9 August, Sunday

Time Temperature Precipitation Wind Pressure Humidity
00:00 +25°C° 0 mm 5 mps 751 mmHg 62%
01:00 +23°C° 0 mm 5 mps 751 mmHg 64%
02:00 +23°C° 0 mm 5 mps 751 mmHg 66%
03:00 +22°C° 0 mm 5 mps 751 mmHg 68%
04:00 +22°C° 0 mm 5 mps 751 mmHg 70%
05:00 +21°C° 0 mm 5 mps 751 mmHg 72%
06:00 +22°C° 0 mm 5 mps 751 mmHg 67%
07:00 +24°C° 0 mm 6 mps 751 mmHg 63%
08:00 +26°C° 0 mm 6 mps 751 mmHg 58%
09:00 +28°C° 0 mm 6 mps 751 mmHg 52%
10:00 +29°C° 0 mm 6 mps 751 mmHg 47%
11:00 +32°C° 0 mm 6 mps 751 mmHg 41%
12:00 +32°C° 0 mm 6 mps 751 mmHg 39%
13:00 +33°C° 0 mm 6 mps 751 mmHg 37%
14:00 +33°C° 0 mm 6 mps 751 mmHg 35%
15:00 +33°C° 0 mm 6 mps 751 mmHg 34%
16:00 +32°C° 0 mm 6 mps 751 mmHg 33%
17:00 +32°C° 0 mm 7 mps 751 mmHg 31%
18:00 +29°C° 0 mm 6 mps 751 mmHg 34%
19:00 +27°C° 0 mm 5 mps 751 mmHg 36%
20:00 +26°C° 0 mm 4 mps 751 mmHg 38%
21:00 +25°C° 0 mm 4 mps 752 mmHg 41%
22:00 +23°C° 0 mm 4 mps 752 mmHg 45%
23:00 +22°C° 0 mm 4 mps 752 mmHg 48%
Show more